Location: Bernay
(48.6766°N, 2.9386°E)
Time: 01:03:21
(UTC+00:00)

SJ 16-02 - Pass Details

Date: 29 April 2026
Orbit: 582 x 592 km, 75.0° (Epoch: 19 May)

Event Time Altitude Azimuth Distance (km) Brightness Sun altitude
Rises 20:47:03 0° 337° (NNW) 2,821 6.1 -15.3°
Reaches altitude 10° 20:49:17 10° 337° (NNW) 1,915 5.0 -15.6°
Maximum altitude 20:53:33 80° 252° (WSW) 598 1.3 -16.1°
Enters shadow 20:55:46 27° 167° (SSE) 1,120 2.2 -16.3°
